sat.trackr.live / text

‹ back to catalog

MALLIGYONG-1

NORAD 58400 · 2023-179A

PAYLOAD ACTIVE UNKNOWN

§ Identity

Operator
Country
NKOR
Launch date
2023-11-21
Launch site
YUN
Launch vehicle
Mass (kg)
RCS (m²)

External: N2YO · Heavens-Above · Gunter

§ Orbital elements

Epoch: 2026-09-21T22:56:15.517824Z

Period
94.54 min
Inclination
97.2851°
Eccentricity
0.0009787
Mean motion
15.23102828 rev/d
Perigee alt
489.8 km
Apogee alt
503.2 km
Semi-major
6,874.6 km
B*
8.1384e-5
RAAN
143.7172°
Arg perigee
54.7365°
Mean anomaly
305.4787°
Rev number
15,748

§ Raw data

MALLIGYONG-11 58400U 23179A   26264.95573516  .00001853  00000+0  81384-4 0  99942 58400  97.2851 143.7172 0009787  54.7365 305.4787 15.23102828157488

JSON: /api/v1/satellites/58400 · /tle

For live sub-satellite position, see the globe view (requires WebGL).

§ Visibility from observer

Set your observer location to see the next 7 days of passes ≥ 10°. The values pass through the URL so the page stays shareable.

No JS? Fill the form by hand. The geolocation button needs JavaScript.